Flag for United Kingdom Weather past 2 weeks in Cheltenham, England, United Kingdom

Now
64 °F

Passing clouds.


Feels Like: 64 °F
Forecast: 38 / 62 °F
Wind: 9 mph from Northeast

Location: Staverton Private

Current Time: Apr 21, 2015 at 4:56:59 PM

Latest Report: Apr 21, 2015 at 4:20 PM


Visibility: N/A

Pressure: 30.51 "Hg

Humidity: 46%

Dew point: 43 °F

Location of CheltenhamLocation

Historic Weather in Cheltenham — Graph

°F

Cheltenham temperature yesterday

Maximum temperature yesterday: 64 °F (at 3:50 PM)
Minimum temperature yesterday: 34 °F (at 6:50 AM)
Average temperature yesterday: 56 °F

Past Weeks' High & Low Weather Summary

 TemperatureHumidityPressure
High68 °F (Apr 10, 2:20 PM)100% (Apr 7, 7:50 AM)30.63 "Hg (Apr 7, 7:50 AM)
Low34 °F (Apr 20, 6:50 AM)36% (Apr 11, 4:50 PM)29.89 "Hg (Apr 10, 4:20 PM)
Average57 °F64%30.27 "Hg
* Reported Apr 6 3:20 PM — Apr 21 3:20 PM, Cheltenham, Weather by CustomWeather, © 2015

Note: Actual official high and low records may vary slightly from our data, if they occured in-between our weather recording intervals... More about our weather records

Advertising

Cheltenham weather history for previous 24 hours

 ConditionsComfort  
Time TempWeatherWind HumidityBarometerVisibility
3:20 PM
Tue, Apr 21
64 °FSunny.10 mph46%30.54 "Hg10 mi
2:50 PM64 °FPassing clouds.8 mph43%30.54 "HgN/A
2:20 PM63 °FPassing clouds.8 mph49%30.54 "HgN/A
1:50 PM61 °FSunny.9 mph52%30.57 "Hg10 mi
1:20 PM61 °FPassing clouds.8 mph55%30.57 "HgN/A
12:50 PM61 °FSunny.10 mph59%30.57 "Hg10 mi
12:20 PM59 °FPassing clouds.10 mph63%30.57 "HgN/A
11:50 AM57 °FSunny.10 mph63%30.57 "Hg10 mi
11:20 AM57 °FSunny.8 mph59%30.57 "Hg10 mi
10:50 AM55 °FSunny.8 mph67%30.57 "Hg10 mi
10:20 AM54 °FSunny.7 mph67%30.60 "Hg10 mi
9:50 AM52 °FSunny.7 mph72%30.57 "Hg10 mi
9:20 AM48 °FSunny.3 mph82%30.57 "Hg10 mi
8:50 AM48 °FSunny.2 mph82%30.57 "Hg10 mi
8:20 AM45 °FClear.No wind87%30.57 "Hg6 mi
7:50 AM43 °FClear.No wind87%30.57 "Hg6 mi
7:20 AM41 °FClear.No wind93%30.57 "Hg6 mi
6:50 AM37 °FClear.No wind93%30.57 "Hg6 mi
7:20 PM
Mon, Apr 20
61 °FSunny.6 mph48%30.42 "Hg10 mi
6:50 PM63 °FSunny.7 mph45%30.42 "Hg10 mi
6:20 PM64 °FPassing clouds.5 mph43%30.42 "HgN/A
5:50 PM64 °FPassing clouds.5 mph43%30.42 "HgN/A
5:20 PM64 °FSunny.3 mph46%30.42 "Hg10 mi
4:50 PM64 °FSunny.5 mph43%30.42 "Hg10 mi
4:20 PM64 °FSunny.6 mph40%30.42 "Hg10 mi
Weather by CustomWeather, © 2015

See weather overviewHow to use our weather pages